www.pogodaiklimat.ru

Погода и климат >> Архив погоды >> Венгрия >> Кечкемет


ПОГОДА в Кечкемете

  • Прогноз погоды в Кечкемете
  • Монитор погоды в Кечкемете

АРХИВ ПОГОДЫ в Кечкемете

Время (UTC), дата Ветер
(напр.,м/с)
 
Видим.   Явления Облачность Т
(С)
Тd
(С)
f
(%)
Тe
(С)
Тes
(С)
Комфортность P
(гПа)
Po
(гПа)
Тmin
(С)
Tmax
(С)
R
(мм)
R24
(мм)
S
(см)
16 18.06 Ю 5
{8}
н/о н/о +24.4 +18.1 68 +29 +29 душно 1014.7 1001.3
17 18.06 СЗ 2
{12}
н/о н/о +21.0 +19.8 93 +27 +27 душно 1015.3 1001.8
18 18.06 С 2
{8}
8000 м слаб. ливневой дождь {гроза} 9/6 330 м
[Frnb Ac cuf]
+19.8 +18.6 93 +23 +23 комфорт 1015.6 1002.0 +30.0 5 0
19 18.06 С 3 н/о н/о +20.0 +17.6 86 +23 +23 комфорт 1015.3 1001.7
20 18.06 СЗ 3 н/о н/о +19.6 +19.1 97 +23 +23 комфорт 1015.3 1001.7
21 18.06 Ю 1 30 км {ливн. осадки} 8/0
[Ac As]
+19.3 +18.6 96 +23 +23 комфорт 1015.5 1001.9
22 18.06 В 1 н/о н/о +18.9 +18.7 99 +22 +22 комфорт 1015.5 1001.9
23 18.06 штиль 0 н/о н/о +18.4 +18.2 99 +19 +19 1015.2 1001.6
00 19.06 штиль 0 н/о н/о +18.3 +18.1 99 +19 +19 1015.1 1001.5 3
01 19.06 ЮВ 1
{7}
н/о н/о +19.2 +17.7 91 +22 +22 комфорт 1014.7 1001.1
02 19.06 штиль 0 н/о н/о +17.6 +17.4 99 +18 +18 1014.3 1000.6
03 19.06 С 1 20 км 6/0
[Ac cast Ci sp]
+17.9 +17.3 96 +19 +19 1014.4 1000.8
04 19.06 штиль 0 н/о н/о +19.3 +18.3 94 +21 +21 комфорт 1014.8 1001.2
05 19.06 В 1 н/о н/о +20.3 +18.8 91 +25 +25 комфорт 1014.5 1001.0
06 19.06 В 1 10 км {ливн. осадки} 8/0
[Ac cast Ci sp]
+22.5 +19.1 81 +28 +28 душно 1014.6 1001.2 +16.6 3 0
07 19.06 В 1 н/о н/о +24.3 +19.8 76 +30 +30 очень
душно
1014.5 1001.1
08 19.06 В 1 н/о н/о +26.1 +20.0 69 +32 +32 очень
душно
1014.3 1001.0
09 19.06 В 2 30 км 6/3 1000 м
[Cu hum Ci sp]
+26.9 +18.5 60 +32 +32 очень
душно
1013.9 1000.7
10 19.06 В 1 н/о н/о +27.8 +18.5 57 +33 +33 очень
душно
1013.6 1000.4
11 19.06 ЮВ 2 н/о н/о +27.9 +17.7 54 +32 +32 душно 1012.8 999.6
12 19.06 Ю 2 30 км 8/8 1000 м
[Cu med, cong Ci ing]
+29.4 +18.5 52 +34 +34 очень
душно
1011.9 998.8
13 19.06 В 5
{8}
н/о н/о +27.6 +19.1 60 +33 +33 очень
душно
1011.8 998.6
14 19.06 СВ 4
{11}
н/о н/о +24.0 +18.6 72 +29 +29 душно 1011.3 998.0
15 19.06 З 7
{10}
10 км гроза, ливневой дождь 9/6 750 м
[Cb cap Ac cuf]
+21.6 +17.8 79 +26 +26 душно 1012.0 998.6
16 19.06 В 2
{10}
н/о н/о +20.4 +19.6 95 +25 +25 комфорт 1011.9 998.4
17 19.06 ЮВ 4
{11}
н/о н/о +19.0 +16.8 87 +20 +20 1012.0 998.4
18 19.06 В 5
{6}
10 км гроза, ливневой дождь 9/5 800 м
[Cb cap Ac cuf]
+18.8 +17.6 93 +20 +20 1013.3 999.7 +29.5 12 0
19 19.06 В 4
{9}
н/о н/о +18.6 +17.9 96 +20 +20 1013.0 999.4
20 19.06 ЮВ 1 н/о н/о +18.3 +17.8 97 +20 +20 1013.2 999.6
21 19.06 СВ 2 15 км 9/4 1200 м
[Sc diur, vesp Ac cuf Ci sp]
+18.1 +17.9 99 +19 +19 1012.7 999.1
22 19.06 В 2 н/о н/о +17.7 +17.5 99 +18 +18 1011.9 998.3
23 19.06 В 1 н/о н/о +17.3 +17.3 100 +18 +18 1012.2 998.6
00 20.06 В 2 7000 м 4/3 1500 м
[Cu hum Ci sp]
+17.2 +17.2 100 +17 +17 1012.6 998.9 0.2
01 20.06 СЗ 1 н/о н/о +16.9 +16.9 100 +18 +18 1012.3 998.6
02 20.06 штиль 0 н/о н/о +17.1 +17.1 100 +17 +17 1012.1 998.5
03 20.06 СВ 1 10 км 9/4 1200 м
[Sc Ac As]
+17.2 +17.2 100 +18 +18 1012.4 998.8
04 20.06 СВ 2 н/о н/о +17.2 +17.2 100 +17 +17 1012.4 998.8
05 20.06 В 4 н/о н/о +18.0 +18.0 100 +18 +18 1012.4 998.8
06 20.06 ЮВ 2 8000 м 9/9 180 м
[St]
+19.3 +19.0 98 +22 +22 комфорт 1013.2 999.6 +16.9 0.2 0
07 20.06 ЮВ 2 н/о н/о +20.8 +19.3 91 +26 +26 душно 1013.1 999.6
08 20.06 В 1 н/о н/о +21.9 +18.7 82 +27 +27 душно 1012.9 999.5
09 20.06 Ю 2 15 км 9/6 420 м
[Cu hum Ac cast]
+22.8 +19.0 79 +29 +29 очень
душно
1013.1 999.7
10 20.06 Ю 2 н/о н/о +23.2 +18.9 77 +29 +29 душно 1013.1 999.7
11 20.06 В 1 н/о н/о +25.2 +18.9 68 +30 +30 душно 1012.8 999.5
12 20.06 СВ 2 20 км 9/6 800 м
[Cu med, cong Ci sp]
+25.9 +19.8 69 +32 +32 очень
душно
1012.0 998.8
13 20.06 штиль 0 н/о н/о +27.0 +18.6 60 +32 +32 очень
душно
1011.6 998.4
14 20.06 Ю 1 н/о н/о +26.8 +17.6 57 +31 +31 душно 1011.1 997.9
15 20.06 С 1 20 км 8/4 1200 м
[Cu med, cong Ac cuf Ci sp]
+27.3 +18.6 59 +32 +32 очень
душно
1011.0 997.8
16 20.06 ЮВ 3 н/о н/о +26.2 +18.9 64 +31 +31 очень
душно
1011.0 997.8
17 20.06 ЮВ 4
{8}
н/о н/о +24.1 +18.5 71 +29 +29 душно 1011.3 998.0
18 20.06 Ю 4 15 км в посл. час гроза 9/1 1200 м
[Sc diur, vesp Ac cuf Cs]
+22.9 +17.8 73 +28 +28 душно 1011.7 998.5 +27.8 0
19 20.06 Ю 1 н/о н/о +22.4 +19.4 83 +28 +28 душно 1012.5 999.1
20 20.06 Ю 1 н/о н/о +21.6 +19.3 87 +27 +27 душно 1013.1 999.6
21 20.06 штиль 0 10 км зарница 9/0
[Cs]
+20.6 +19.9 96 +25 +25 комфорт 1013.2 999.7
22 20.06 Ю 2 н/о н/о +20.3 +19.8 97 +25 +25 комфорт 1013.1 999.6
23 20.06 штиль 0 н/о н/о +20.0 +19.7 98 +23 +23 комфорт 1013.1 999.6
00 21.06 В 1 10 км 4/0
[Ac lent]
+19.4 +19.4 100 +23 +23 комфорт 1013.5 999.9
01 21.06 ЮВ 1 н/о н/о +19.0 +19.0 100 +22 +22 комфорт 1013.7 1000.1
02 21.06 штиль 0 н/о н/о +18.6 +18.6 100 +20 +20 1013.8 1000.2
03 21.06 В 1 4000 м местами туман поземный 3/0
[Ac cast Ci sp]
+18.0 +18.0 100 +19 +19 1014.2 1000.6
04 21.06 СЗ 3 н/о н/о +19.1 +19.1 100 +21 +21 комфорт 1014.8 1001.2
05 21.06 З 1
{7}
н/о н/о +20.7 +18.1 85 +26 +26 душно 1014.9 1001.4
06 21.06 СЗ 2 10 км слаб. ливневой дождь {гроза} 9/6 900 м
[Cu med, cong Ac cast Ci sp]
+19.5 +18.8 96 +23 +23 комфорт 1015.3 1001.7 +17.9 1 0
07 21.06 С 2 н/о н/о +20.9 +19.7 93 +26 +26 душно 1015.3 1001.8
08 21.06 С 1 н/о н/о +23.9 +19.4 76 +29 +29 душно 1015.6 1002.2
09 21.06 С 1 30 км {ливн. осадки} 4/1 600 м
[Cu hum Ci sp]
+25.6 +19.5 69 +31 +31 очень
душно
1015.6 1002.3
10 21.06 Ю 1 н/о н/о +26.6 +19.5 65 +32 +32 очень
душно
1015.4 1002.1
11 21.06 штиль 0 н/о н/о +27.5 +19.0 60 +33 +33 очень
душно
1014.9 1001.7
12 21.06 ЮЗ 3 30 км 6/6 1200 м
[Cu med, cong]
+28.0 +18.1 55 +33 +33 очень
душно
1014.4 1001.2
13 21.06 З 4
{8}
н/о н/о +28.7 +18.2 53 +33 +33 очень
душно
1014.2 1001.0
14 21.06 СЗ 5
{8}
н/о н/о +29.1 +17.3 49 +33 +33 очень
душно
1014.0 1000.9
15 21.06 СЗ 6
{9}
30 км 3/3 1500 м
[Cu med, cong]
+28.5 +15.1 44 +31 +31 душно 1014.1 1000.9
16 21.06 СЗ 4
{8}
н/о н/о +27.6 +15.3 47 +30 +30 жарко 1013.8 1000.6
17 21.06 С 1 н/о н/о +26.9 +17.4 56 +31 +31 душно 1014.3 1001.1
18 21.06 штиль 0 30 км 8/0
[Ac cuf Cs]
+26.6 +17.7 58 +31 +31 душно 1014.8 1001.5 +29.1 0
19 21.06 Ю 2 н/о н/о +22.5 +18.3 77 +28 +28 душно 1015.1 1001.7
20 21.06 Ю 2 н/о н/о +21.3 +17.9 81 +25 +25 комфорт 1016.0 1002.5
21 21.06 Ю 2 30 км 6/0
[Ac As]
+20.3 +18.4 89 +24 +24 комфорт 1016.1 1002.5
22 21.06 Ю 1 н/о н/о +19.6 +18.3 92 +23 +23 комфорт 1016.2 1002.6
23 21.06 ЮЗ 1 н/о н/о +19.0 +18.5 97 +22 +22 комфорт 1016.3 1002.7
00 22.06 штиль 0 10 км слаб. ливневой дождь {гроза} 10/3 1000 м
[Cu med, cong Ac As]
+18.2 +18.0 99 +19 +19 1016.5 1002.8 22
01 22.06 СЗ 1 н/о н/о +18.3 +18.3 100 +20 +20 1016.4 1002.7
02 22.06 С 2 н/о н/о +17.6 +17.6 100 +18 +18 1016.6 1002.9
03 22.06 СВ 2 н/о н/о +17.6 +17.6 100 +18 +18 1016.9 1003.2
04 22.06 СВ 1 н/о н/о +18.5 +18.0 97 +20 +20 1017.3 1003.6
05 22.06 В 2 н/о н/о +20.4 +19.1 92 +25 +25 комфорт 1017.3 1003.7
06 22.06 В 3 20 км 3/0
[Ac cast Ci sp]
+22.6 +18.8 79 +28 +28 душно 1017.5 1004.0 +17.4 0
07 22.06 В 5
{7}
н/о н/о +24.1 +18.5 71 +29 +29 душно 1017.4 1004.0
08 22.06 В 4
{7}
н/о н/о +24.9 +18.4 67 +29 +29 душно 1017.8 1004.4
09 22.06 В 3
{7}
20 км 4/3 900 м
[Cu hum Ac trans Ci sp]
+25.8 +18.2 63 +30 +30 душно 1018.1 1004.8
10 22.06 В 3
{8}
н/о н/о +26.7 +19.1 63 +32 +32 очень
душно
1017.9 1004.6
11 22.06 В 3 н/о н/о +27.3 +18.6 59 +32 +32 очень
душно
1017.5 1004.2
12 22.06 ЮВ 2 20 км 8/5 900 м
[Cu med, cong Ci sp]
+27.5 +18.5 58 +32 +32 очень
душно
1016.7 1003.5
13 22.06 В 3 н/о н/о +27.5 +18.2 57 +32 +32 очень
душно
1015.7 1002.5
14 22.06 В 3 н/о н/о +28.1 +17.9 54 +33 +33 очень
душно
1015.3 1002.1
15 22.06 В 3 20 км 6/3 1350 м
[Cu hum Ac cuf Ci sp]
+28.0 +18.1 55 +33 +33 очень
душно
1014.8 1001.6
16 22.06 В 3 н/о н/о +27.3 +16.6 52 +31 +31 душно 1014.8 1001.6
17 22.06 В 4
{7}
н/о н/о +26.6 +16.8 55 +30 +30 душно 1014.3 1001.1
18 22.06 В 3 25 км 9/1 1350 м
[Cu med, cong Ac cast Cs]
+25.0 +17.5 63 +29 +29 душно 1014.3 1001.0 +28.5 0
19 22.06 В 3 н/о н/о +23.6 +17.8 70 +28 +28 душно 1014.8 1001.4
20 22.06 СВ 1 н/о н/о +23.2 +18.7 76 +29 +29 душно 1015.2 1001.8
21 22.06 С 1
{16}
5000 м гроза, ливневой дождь 10/10 660 м
[Cb cap]
+17.2 +17.0 99 +18 +18 1016.4 1002.7
22 22.06 СВ 2 н/о н/о +17.6 +17.6 100 +18 +18 1016.0 1002.3
23 22.06 ЮВ 2 н/о н/о +17.8 +17.8 100 +18 +18 1015.2 1001.5
00 23.06 С 3 10 км {гроза} 6/0
[Ac As]
+17.9 +17.9 100 +18 +18 1014.3 1000.7 22
01 23.06 Ю 1 н/о н/о +17.8 +17.8 100 +19 +19 1014.9 1001.2
02 23.06 Ю 1 н/о н/о +18.0 +18.0 100 +19 +19 1015.2 1001.6
03 23.06 В 1 10 км 9/4 1200 м
[Sc Ac As]
+18.0 +18.0 100 +19 +19 1014.7 1001.1
04 23.06 СВ 1 н/о н/о +18.6 +18.1 97 +21 +21 комфорт 1014.6 1001.0
05 23.06 С 4 н/о н/о +19.2 +18.5 96 +21 +21 комфорт 1014.6 1001.0
06 23.06 СВ 3 10 км {ливн. осадки} 10/6 210 м
[Cu Sc Ac As]
+19.7 +18.7 94 +23 +23 комфорт 1015.0 1001.4 +17.1 22 0
07 23.06 СВ 3 н/о н/о +19.9 +19.2 96 +23 +23 комфорт 1014.8 1001.2
08 23.06 ЮВ 2 н/о н/о +20.3 +19.3 94 +25 +25 комфорт 1015.5 1002.0
09 23.06 СВ 3 10 км {дождь} 9/6 450 м
[Cu Sc Ac As]
+21.8 +19.5 87 +27 +27 душно 1015.2 1001.7
10 23.06 СВ 3 н/о н/о +21.8 +19.4 86 +27 +27 душно 1014.8 1001.3
11 23.06 З 2 н/о н/о +22.6 +19.4 82 +29 +29 очень
душно
1015.5 1002.1
12 23.06 З 2 10 км в посл. час дождь 9/6 480 м
[Cu Sc Ac As]
+23.0 +18.5 76 +29 +29 очень
душно
1015.2 1001.8 0.5
13 23.06 СВ 2 н/о н/о +23.4 +18.9 76 +30 +30 очень
душно
1014.3 1000.9
14 23.06 штиль 0 н/о н/о +24.7 +19.3 72 +30 +30 очень
душно
1013.7 1000.4
15 23.06 СВ 2 20 км {дождь} 8/1 1350 м
[Cu hum Ac cast Ci sp]
+26.2 +18.9 64 +31 +31 очень
душно
1013.6 1000.3
16 23.06 С 1 н/о н/о +25.7 +18.1 63 +30 +30 душно 1013.7 1000.4
17 23.06 СВ 4
{7}
н/о н/о +24.6 +19.7 74 +30 +30 очень
душно
1013.2 999.9
18 23.06 З 2
{12}
8000 м гроза, ливневой дождь 9/9 750 м
[Cb cap]
+20.2 +19.5 96 +25 +25 комфорт 1014.9 1001.4 +26.3 7 0
19 23.06 С 3 н/о н/о +20.6 +19.4 93 +25 +25 комфорт 1015.3 1001.8
20 23.06 СВ 3 н/о н/о +20.1 +18.6 91 +24 +24 комфорт 1015.0 1001.5
21 23.06 С 2 10 км 6/0
[Ac lent Ci sp]
+19.3 +16.9 86 +22 +22 комфорт 1015.3 1001.7
22 23.06 С 2 н/о н/о +19.0 +16.2 84 +21 +21 комфорт 1016.2 1002.6
23 23.06 штиль 0 н/о н/о +18.6 +16.9 90 +19 +19 1016.6 1003.0
00 24.06 штиль 0 30 км 5/0
[Ci sp]
+18.7 +17.4 92 +20 +20 1016.7 1003.1
01 24.06 СЗ 3 н/о н/о +17.7 +17.4 98 +18 +18 1016.6 1002.9
02 24.06 С 2 н/о н/о +18.0 +16.9 93 +19 +19 1016.3 1002.6
03 24.06 С 2 15 км 6/0
[Ac As Ci sp]
+17.8 +16.7 93 +18 +18 1016.4 1002.7
04 24.06 СЗ 2 н/о н/о +18.1 +17.0 93 +19 +19 1016.8 1003.1
05 24.06 С 2 н/о н/о +19.2 +17.5 90 +22 +22 комфорт 1016.8 1003.2
06 24.06 СВ 4 20 км 9/0
[Ac As Cs]
+20.5 +17.5 83 +24 +24 комфорт 1017.3 1003.7 +17.7 0.8 0
07 24.06 СВ 5
{7}
н/о н/о +21.6 +18.0 80 +26 +26 душно 1017.4 1003.9
08 24.06 СВ 4
{7}
н/о н/о +22.9 +18.7 77 +29 +29 очень
душно
1017.7 1004.2
09 24.06 В 4 30 км 9/5 1500 м
[Cu hum Ac As]
+24.4 +18.3 69 +29 +29 душно 1017.9 1004.5
10 24.06 СВ 5
{8}
н/о н/о +25.1 +18.8 68 +30 +30 душно 1018.4 1005.0
11 24.06 СВ 4
{7}
н/о н/о +25.5 +19.2 68 +31 +31 очень
душно
1018.3 1005.0
12 24.06 В 3
{7}
30 км 9/6 750 м
[Cu med, cong Ac As]
+25.3 +19.7 71 +31 +31 очень
душно
1018.5 1005.1
13 24.06 ЮВ 3 н/о н/о +25.6 +19.3 68 +31 +31 очень
душно
1018.3 1005.0
14 24.06 В 2 н/о н/о +27.1 +20.4 67 +34 +34 очень
душно
1018.4 1005.1
15 24.06 С 3 30 км 8/5 750 м
[Cu med, cong Ac cuf]
+26.3 +20.4 70 +33 +33 очень
душно
1018.2 1004.9
16 24.06 С 5
{7}
н/о н/о +26.0 +21.0 74 +33 +33 очень
душно
1018.7 1005.4
17 24.06 СВ 5
{8}
н/о н/о +24.4 +20.7 80 +30 +30 очень
душно
1019.3 1005.9
18 24.06 С 1
{8}
10 км слаб. ливневой дождь 8/1 750 м
[Cu med, cong Ac cuf]
+23.2 +18.9 77 +29 +29 душно 1019.4 1005.9 +27.3 0.0 0
19 24.06 С 2 н/о н/о +22.7 +19.5 82 +29 +29 очень
душно
1020.1 1006.6
20 24.06 С 2 н/о н/о +22.4 +20.3 88 +29 +29 очень
душно
1020.8 1007.3
21 24.06 С 3 30 км 6/0
[Ac As Ci sp]
+22.7 +19.1 80 +29 +29 очень
душно
1021.2 1007.7
22 24.06 СВ 4
{7}
н/о н/о +22.3 +18.7 80 +28 +28 душно 1021.3 1007.8
23 24.06 СВ 3 н/о н/о +20.9 +17.9 83 +25 +25 комфорт 1021.5 1007.9
00 25.06 С 2 н/о н/о +20.3 +17.7 85 +24 +24 комфорт 1021.5 1007.9
01 25.06 С 2 н/о н/о +19.6 +17.6 88 +23 +23 комфорт 1021.7 1008.0
02 25.06 С 2 н/о н/о +19.1 +17.6 91 +21 +21 комфорт 1021.5 1007.8
03 25.06 СВ 3 15 км 5/0
[Ci sp]
+19.0 +17.7 92 +21 +21 комфорт 1021.7 1008.0
04 25.06 СВ 3 н/о н/о +19.6 +17.9 90 +22 +22 комфорт 1021.6 1007.9
05 25.06 СВ 5
{7}
н/о н/о +21.4 +18.8 85 +26 +26 душно 1021.6 1008.0
06 25.06 СВ 5
{6}
15 км 4/0
[Ci sp]
+22.8 +19.2 80 +29 +29 очень
душно
1022.2 1008.7 +18.9 0
07 25.06 В 4 н/о н/о +24.2 +19.5 75 +29 +29 душно 1022.9 1009.4
08 25.06 В 3 н/о н/о +25.5 +19.6 70 +31 +31 очень
душно
1023.0 1009.6
09 25.06 СВ 2 20 км 1/1 900 м
[Cu hum Ci sp]
+26.8 +19.7 65 +33 +33 очень
душно
1023.1 1009.7
10 25.06 СВ 3
{7}
н/о н/о +28.1 +20.1 62 +34 +34 очень
душно
1023.1 1009.8
11 25.06 В 3 н/о н/о +28.9 +20.4 60 +36 +36 очень
душно
1023.3 1010.0
12 25.06 В 3
{7}
н/о н/о +29.5 +20.6 59 +37 +37 очень
душно
1023.0 1009.8
13 25.06 ЮВ 3
{7}
н/о н/о +30.2 +19.3 52 +36 +36 очень
душно
1022.9 1009.7
14 25.06 В 3 н/о н/о +30.7 +18.1 47 +35 +35 очень
душно
1022.8 1009.6

 

Местоположение метеостанции Кечкемет (Венгрия): широта 46.92 долгота 19.75 высота над уровнем моря 123 м.

В архиве по умолчанию представлена погода в Кечкемете за последнюю неделю. Архивные данные за месяц целиком и за предыдущие месяцы, начиная с января 2011 года, Вы можете получить, выбрав интересующий диапазон дат из раскрывающегося списка и нажав кнопку "Ввод!".


*Определитесь, кто Вы:
робот инопланетянин человек

Внимание! Время в таблицах - всемирное. Для получения местного времени необходимо прибавить поправку, которая равна 1 ч.

Смотрите также архив погоды в соседних городах и на ближайших метеорологических станциях:

Погода в Сольноке (Венгрия) (43 км)
Погода в Будапеште (Венгрия) (71 км)
Погода в Пакше (Венгрия) (78 км)
Погода в Сегеде (Венгрия) (79 км)
Погода в Агарде (Венгрия) (90 км)
Погода в Паличе (Сербия) (91 км)
Погода в Байе (Венгрия) (99 км)
Погода в Порозло (Венгрия) (105 км)
Погода на Кекеше (Венгрия) (108 км)
Погода в Бекешчабе (Венгрия) (111 км)

Пояснения к столбцам:

Ветер - указаны скорость ветра в м/с - средняя за 10 мин, порывы в срок и между сроками (в фигурных скобках) и направление, откуда дует ветер: С - северный, СВ - северо-восточный, В - восточный, ЮВ - юго-восточный, Ю - южный, ЮЗ - юго-западный, З - западный, СЗ - северо-западный.
Видимость - горизонтальная дальность видимости в метрах или километрах. При видимости от 1 до 10 км при отсутствии осадков обычно наблюдается дымка, при ухудшении видимости до 1 км и менее - туман. В сухую погоду видимость может ухудшаться дымом, пылью или мглою.
Явления - указаны атмосферные явления, наблюдавшиеся в срок или в последний час перед сроком; фигурными скобками обозначены явления, наблюдавшиеся между сроками (за 1-3 часа до срока); квадратными скобками обозначены град или гололедные отложения с указанием их диаметра в мм.
Облачность - указаны через наклонную черту общая и нижняя облачность в баллах и высота нижней границы облаков в метрах; квадратными скобками обозначены формы облаков: Ci - перистые, Cs - перисто-слоистые, Cc - перисто-кучевые, Ac - высококучевые, As - высокослоистые, Sc - слоисто-кучевые, Ns - слоисто-дождевые, Cu - кучевые, Cb - кучево-дождевые. Подробнее классификацию облаков см. в Атласе облаков (PDF).
T - Температура воздуха - температура, измеренная на высоте 2 м над землей.
Td - Температура точки росы - температура, при понижении до которой содержащийся в воздухе водяной пар достигнет насыщения.
f - Относительная влажность воздуха - влажноcть воздуха, измеренная на высоте 2 м над землей.
Te - Эффективная температура - температура, которую ощущает одетый по сезону человек в тени. Характеристика душности погоды. При расчете учитывается влияние влажности воздуха и скорости ветра на теплоощущения человека.
Tes - Эффективная температура на солнце - температура, которую ощущает человек, с поправкой на солнечный нагрев. Характеристика знойности погоды. Зависит от высоты солнца над горизонтом, облачности и скорости ветра. Ночью, в пасмурную погоду, а также при ветре 12 м/с и более поправка равна нулю.
P - Атмосферное давление - приведенное к уровню моря атмосферное давление.
Po - Атмосферное давление - измеренное на уровне метеостанции атмосферное давление.
Tmin - Минимальная температура - минимум температуры воздуха на высоте 2 м над землей.
Tmax - Максимальная температура - максимум температуры воздуха на высоте 2 м над землей.
R - Количество осадков - Количество выпавших осадков за период времени, мм. При наведении курсора мыши на число - период времени, за который выпало указанное количество осадков.
R24 - Количество осадков - Количество выпавших осадков за 24 часа, мм.
S - Снежный покров - Высота снежного покрова, см. При наведении курсора мыши на число - состояние снежного покрова и степень покрытия местности в баллах.